Regional Weather Roundup
Issued by NWS

Home | Current Version | Previous Version | Text Only | Print | Product List | Glossary On
Versions: 1 2 3 4 5 6 7 8 9 10 11 12 13 14 15 16 17 18 19 20 21 22 23 24 25 26 27 28 29 30 31 32 33 34 35 36 37 38 39 40 41 42 43 44 45 46 47 48 49 50
000
ASUS46 KSTO 311609
RWRCA

NORTHERN AND CENTRAL CA REGIONAL WEATHER ROUNDUP
NATIONAL WEATHER SERVICE SACRAMENTO CA
900 AM PDT TUE MAY 31 2016

NOTE: FAIR INDICATES FEW OR NO CLOUDS BELOW 12,000 FEET WITH NO
SIGNIFICANT WEATHER AND/OR OBSTRUCTIONS TO VISIBILITY.

CAZ001-003-311700-
NORTHWEST AREA

CITY           SKY/WX    TMP DP  RH WIND       PRES   REMARKS
CRESCENT CITY  SUNNY     58  52  80 SE3       29.94S
ARCATA         NOT AVBL
SHELTER COVE   NOT AVBL
UKIAH          SUNNY     71  51  49 CALM      29.90S
$$

CAZ006-505>513-311700-
BAY AREA

CITY           SKY/WX    TMP DP  RH WIND       PRES   REMARKS
SANTA ROSA     SUNNY     60  52  74 CALM      29.87S
SAN RAFAEL     N/A       54  MM  MM MISG
NAPA           SUNNY     61  55  81 VRB3      29.89R
CONCORD        SUNNY     69  52  54 CALM      29.87S
OAKLAND CITY   N/A       MM  MM  MM MISG
OAKLAND        MOSUNNY   61  53  75 W5        29.90R
SAN FRAN CITY  N/A       56  MM  89 MISG
SAN FRAN ARPT  MOSUNNY   61  55  81 NE5       29.89S
LIVERMORE      SUNNY     70  50  49 CALM      29.87S
HAYWARD        SUNNY     65  53  65 CALM      29.89R
REDWOOD CITY   N/A       MM  MM  MM MISG
MOFFETT ARPT   SUNNY     67  57  70 NE5       29.89S
SAN JOSE ARPT  MOSUNNY   67  53  61 CALM      29.88F
$$
CAZ034-037-514>518-311700-
CENTRAL COAST

CITY           SKY/WX    TMP DP  RH WIND       PRES   REMARKS
WATSONVILLE    CLOUDY    54  53  97 CALM      29.92R
SALINAS        PTSUNNY   56  51  84 VRB3      29.90S HAZE
MONTEREY       SUNNY     54  50  86 W5        29.91R
PT PIEDRAS BLS NOT AVBL
SAN LUIS OBISP MOSUNNY   58  53  84 W3        29.90R
SANTA MARIA    CLOUDY    55  54  96 CALM      29.91S FOG
$$
CAZ015-016-311700-
NORTHERN SACRAMENTO VALLEY

CITY           SKY/WX    TMP DP  RH WIND       PRES   REMARKS
REDDING        SUNNY     84  43  23 N14G20    29.86F
RED BLUFF      SUNNY     83  44  25 N13       29.87S
OROVILLE       SUNNY     83  51  33 CALM      29.85S
$$
CAZ016>018-311700-
SOUTHERN SACRAMENTO VALLEY

CITY           SKY/WX    TMP DP  RH WIND       PRES   REMARKS
AUBURN         SUNNY     81  55  41 CALM      29.91R
BEALE AFB      SUNNY     80  52  38 VRB1      29.82S
LINCOLN        FAIR      77  54  44 NW6       29.83F
MARYSVILLE     SUNNY     80  57  45 CALM      29.84S
SAC INTL ARPT  SUNNY     76  56  49 CALM      29.84R
MATHER AIRPORT SUNNY     75  52  43 CALM      29.85R
DOWNTOWN SAC   N/A       78  MM  MM MISG
SAC EXEC ARPT  SUNNY     74  53  48 E5        29.84S
VACAVILLE      SUNNY     79  54  41 CALM      29.86R
TRAVIS AFB     SUNNY     73  54  51 SW9       29.83S
$$
CAZ019>021-311700-
SAN JOAQUIN VALLEY

CITY           SKY/WX    TMP DP  RH WIND       PRES   REMARKS
STOCKTON       SUNNY     76  49  38 NW3       29.84S
MODESTO        SUNNY     78  50  37 N3        29.84S
MERCED         SUNNY     78  49  35 CALM      29.84S
LEMOORE        MOSUNNY   81  45  28 CALM      29.86S
FRESNO         SUNNY     78  53  41 SE7       29.86S
HANFORD        SUNNY     78  51  38 CALM      29.86S
PORTERVILLE    SUNNY     79  53  40 SW6       29.88R
BAKERSFIELD    SUNNY     81  46  29 SE3       29.87S
$$
CAZ011-012-071-311700-
NORTHERN MOUNTAINS

CITY           SKY/WX    TMP DP  RH WIND       PRES   REMARKS
YREKA          SUNNY     66  41  40 N3        30.08F
MOUNT SHASTA   SUNNY     71  45  39 MISG      30.08S
ALTURAS        SUNNY     62  39  42 CALM      30.15F
$$
CAZ011-012-071-311700-
SIERRA NEVADA MTNS

CITY           SKY/WX    TMP DP  RH WIND       PRES   REMARKS
BLUE CANYON    NOT AVBL
TRUCKEE        MOSUNNY   54  46  76 CALM      30.21F
TAHOE VLY ARPT SUNNY     61  46  57 NE6       30.21S
MAMMOTH LAKES  FAIR      65  27  24 CALM      30.26S
$$



USA.gov is the U.S. government's official web portal to all federal, state and local government web resources and services.